Regional Weather Roundup
Issued by NWS Newport/Morehead, NC

Current Version | Previous Version | Graphics & Text | Print | Product List | Glossary On
Versions: 1 2 3 4 5 6 7 8 9 10 11 12 13 14 15 16 17 18 19 20 21 22 23 24 25 26 27 28 29 30 31 32 33 34 35 36 37 38 39 40 41 42 43 44 45 46 47 48 49 50
522 ASUS42 KMHX 291825 RWRMHX WEATHER ROUNDUP FOR EASTERN NORTH CAROLINA NATIONAL WEATHER SERVICE NEWPORT/MOREHEAD CITY NC 200 PM EDT MON MAY 29 2017 NOTE: "FAIR" INDICATES FEW OR NO CLOUDS BELOW 12,000 FEET WITH NO SIGNIFICANT WEATHER AND/OR OBSTRUCTIONS TO VISIBILITY NCZ015>017-031-032-045>047-102-103-291900- NORTH COAST CITY SKY/WX TMP DP RH WIND PRES REMARKS EDENTON SUNNY 88 65 47 W5 29.93F ELIZABETH CITY SUNNY 86 68 54 W9 29.92F KITTY HAWK PTCLDY 81 67 61 CALM 29.93S MANTEO SUNNY 82 66 58 NW7 29.94S $$ NCZ045>047-081-094-103-104-291900- CENTRAL COAST CITY SKY/WX TMP DP RH WIND PRES REMARKS FRISCO SUNNY 84 70 62 SW7 29.96R $$ NCZ095-097-098-100-101-291900- SOUTHERN COAST CITY SKY/WX TMP DP RH WIND PRES REMARKS BEAUFORT SUNNY 83 73 72 S13 29.94F CEDAR ISLAND NOT AVBL JACKSONVILLE NOT AVBL PINEY ISLAND CLEAR N/A N/A N/A W7 29.94F WILMINGTON SUNNY 89 64 43 VRB3 29.96S $$ NCZ011>013-027>030-043-044-078>080-089-090>093-098-291900- COASTAL PLAIN CITY SKY/WX TMP DP RH WIND PRES REMARKS AHOSKIE NOT AVBL CLINTON SUNNY 89 66 46 W8 29.96S ELIZABETHTOWN SUNNY 89 62 40 W7 29.96S GOLDSBORO MOSUNNY 88 64 44 W13 29.93F GREENVILLE SUNNY 88 64 45 NW5 29.96S HAVELOCK SUNNY 89 65 44 N6 29.94F KENANSVILLE SUNNY 88 63 42 NW6 29.95S KINSTON MOSUNNY 88 63 42 CALM 29.95S NEW BERN SUNNY 88 64 44 VRB3 29.95F RICHLANDS SUNNY 90 65 43 VRB3 29.95F ROCKY MOUNT SUNNY 86 63 45 W10 29.94F WASHINGTON SUNNY 87 64 46 NW7 29.94S WHITEVILLE SUNNY 87 66 48 SW5 29.96S $$ AMZ130-135-150-152-154-156-158-170-250-252-270-ANZ085-086-088-633-658-670-291900- MARINE OBSERVATIONS STATION/POSITION TIME TEMP WIND PRES WAVE SWELL AIR SEA DIR/SP/G HT/PER HT/PER (UTC) (F) (DEG/KT/KT) (MB) (FT/S) (FT/S) CHESAPEAKE LIGHT NOT AVBL 64 E VA BEACH 1750 66 66 310/ 4/ 6 1014.4 4/ 6 3/ 6 DUCK 1800 74 70 90/ 9/ 10 1013.2 2 E DUCK 1800 72 N/A 2/ 7 OREGON INLET 1800 83 69 290/ 7/ 10 1013.7 13E OREGON INLT 1748 70 N/A 3/ 6 3/ 6 HATTERAS CG 1800 81 76 200/ 6/ 8 1014.3 DIAMOND BUOY 1750 76 77 250/ 10/ 12 1014.6 3/ 6 3/ 6 CAPE LOOKOUT 1800 80 200/ 10/ 11 1013.9 BEAUFORT LAB 1800 79 75 190/ 10/ 12 1013.1 30 SE NEW RVR IN 1808 78 78 220/ 8/ 10 1014.7 30 SE NEW RVR IN 1743 78 N/A 3/ 6 27 SE WRIGHTSVLE 1808 78 78 190/ 8/ 10 1014.3 5 SE WRIGHTSVLE 1808 79 78 190/ 10/ 12 1014.4 225 S CAPE HAT 1750 78 77 220/ 16/ 17 1016.8 3/ 5 2/ 8 41 SE CHARLESTON 1810 77 77 230/ 10/ 12 1016.0 $$

USA.gov is the U.S. government's official web portal to all federal, state and local government web resources and services.